Find Local Weather

World > North America > United States > New Jersey

Finderne, New Jersey Regional Weather

Lat: 40.56N, Lon: 74.58W
Wx Zone: NJZ010
Warning FLW WEATHER ALERT - (More Info. Click Here) Warning
Feedback

Finderne, NJ Regional Weather

Expires:201905201100;;162079
ASUS41 KOKX 201013
RWROKX

Regional Weather Roundup
National Weather Service New York NY
600 AM EDT MON MAY 20 2019

Note: "FAIR" indicates few or no clouds below 12,000 feet with no
significant weather and/or obstructions to visibility.


NJZ001-105-106-008-010-013-015-019>022-104-201100-
New Jersey
  
CITY           SKY/WX    TMP DP  RH WIND       PRES   REMARKS
Newark/Liberty MOCLDY    70  64  81 S6        29.82F                  
Teterboro      FAIR      67  64  90 SW6       29.81F                  
Caldwell       MOCLDY    67  67 100 CALM      29.83S FOG              
Somerville     FOG       65  64  97 CALM      29.81S VSB 1/2          
Linden         FAIR      68  64  85 CALM      29.83S                  
Perth Amboy      N/A     70 N/A N/A SW8         N/A                   
Sussex         MOCLDY    65  65 100 CALM      29.84R FOG              
Andover          N/A     65  64  97 CALM      29.84R                  
Trenton        FAIR      67  65  93 S6        29.83S                  
Millville      FAIR      71  65  81 SW6       29.87S                  
Atlantic City  FAIR      67  65  93 S7        29.88S                  
Wrightstown    MOCLDY    68  64  89 SW8       29.83                   
Toms River     FAIR      69  67  93 S9        29.86S                  
Belmar         FAIR      69  65  86 SW7       29.86F                  
$$
 

SKY/WX - Weather  TMP - Temperature  DP - Dew Point  RH - Relative Humidity
WIND - Wind Direction/Speed PRES - Barometric Pressure VSB - Visibility
WCI - Wind Chill Index E13G22 Wind - East Wind 13 mph/Gusts of 22 mph